Date String (YYYY-MM-DD hh:mm:ss) UTC,Instrument flags,Ambient pressure (hPa),Sample flow (lpm),Bypass flow (lpm),Sample temperature (°C),Ambient temperature (°C),ASC tube jacket temperature (°C),LED temperature (°C),Box temperature (°C),Sample RH (%),Span deviation,Mass concentration (μg/m³),Mass concentration (μg/m³),Mass concentration (μg/m³)
DateTimeUTC,F1_M11,P_M11,Q1_M11,Q2_M11,T1_M11,T2_M11,T3_M11,T4_M11,T5_M11,U1_M11,ZSPAN_M11,X0_M11,X2_M11,X1_M11
2022-10-05 15:00:00,,0834.0,5.00,0.00,28.7,27.4,00.0,37.3,30.6,21.6,0000.0,0008.76,0005.57,0005.34
2022-10-05 15:01:00,,0834.0,5.00,0.00,28.7,27.4,00.0,37.3,30.6,23.3,0000.0,0008.76,0005.56,0005.33
2022-10-05 15:02:00,,0834.0,4.99,0.00,28.7,27.4,00.0,37.3,30.6,23.4,0000.0,0008.75,0005.58,0005.34
2022-10-05 15:03:00,,0834.0,5.02,0.00,28.7,27.5,00.0,37.3,30.6,23.6,0000.0,0008.57,0005.59,0005.34
2022-10-05 15:04:00,,0834.0,4.99,0.00,28.7,27.5,00.0,37.4,30.6,23.1,0000.0,0008.22,0005.56,0005.34
2022-10-05 15:05:00,,0834.1,4.99,0.00,28.7,27.5,00.0,37.4,30.6,22.9,0000.0,0008.17,0005.55,0005.34
2022-10-05 15:06:00,,0834.0,5.01,0.00,28.7,27.5,00.0,37.4,30.6,22.7,0000.0,0008.08,0005.52,0005.33
2022-10-05 15:07:00,,0834.1,4.99,0.00,28.7,27.5,00.0,37.4,30.7,22.6,0000.0,0007.99,0005.51,0005.34
2022-10-05 15:08:00,,0834.1,5.01,0.00,28.8,27.5,00.0,37.4,30.7,22.5,0000.0,0007.93,0005.50,0005.34
2022-10-05 15:09:00,,0834.1,4.99,0.00,28.8,27.5,00.0,37.4,30.7,22.6,0000.0,0007.89,0005.49,0005.33
2022-10-05 15:10:00,,0834.0,5.00,0.00,28.8,27.6,00.0,37.4,30.7,23.6,0000.0,0008.11,0005.53,0005.35
2022-10-05 15:11:00,,0834.1,5.01,0.00,28.8,27.6,00.0,37.4,30.7,23.1,0000.0,0008.35,0005.59,0005.40
2022-10-05 15:12:00,,0834.1,4.99,0.00,28.8,27.6,00.0,37.4,30.7,23.1,0000.0,0008.36,0005.62,0005.44
2022-10-05 15:13:00,,0834.1,5.02,0.00,28.8,27.6,00.0,37.4,30.7,23.0,0000.0,0008.39,0005.62,0005.44
2022-10-05 15:14:00,,0834.1,4.99,0.00,28.8,27.6,00.0,37.5,30.7,22.7,0000.0,0008.48,0005.66,0005.45
2022-10-05 15:15:00,,0834.1,5.01,0.00,28.8,27.6,00.0,37.5,30.8,22.6,0000.0,0008.54,0005.69,0005.46
2022-10-05 15:16:00,,0834.1,4.99,0.00,28.9,27.6,00.0,37.5,30.8,23.3,0000.0,0008.57,0005.70,0005.46
2022-10-05 15:17:00,,0834.1,5.01,0.00,28.9,27.7,00.0,37.5,30.8,23.7,0000.0,0008.93,0005.72,0005.46
2022-10-05 15:18:00,,0834.1,4.99,0.00,28.9,27.7,00.0,37.5,30.8,23.6,0000.0,0009.03,0005.74,0005.47
2022-10-05 15:19:00,,0834.1,5.01,0.00,28.9,27.7,00.0,37.5,30.8,23.6,0000.0,0009.02,0005.74,0005.47
2022-10-05 15:20:00,,0834.1,4.99,0.00,28.9,27.7,00.0,37.5,30.8,23.0,0000.0,0009.09,0005.75,0005.46
2022-10-05 15:21:00,,0834.0,5.00,0.00,28.9,27.7,00.0,37.5,30.8,23.0,0000.0,0008.80,0005.68,0005.43
2022-10-05 15:22:00,,0834.1,5.01,0.00,28.9,27.7,00.0,37.6,30.8,22.9,0000.0,0009.12,0005.63,0005.39
2022-10-05 15:23:00,,0834.1,4.99,0.00,28.9,27.7,00.0,37.6,30.8,23.0,0000.0,0009.11,0005.58,0005.34
2022-10-05 15:24:00,,0834.1,5.01,0.00,29.0,27.7,00.0,37.6,30.9,23.0,0000.0,0009.08,0005.55,0005.30
2022-10-05 15:25:00,,0834.1,4.99,0.00,29.0,27.8,00.0,37.6,30.8,22.8,0000.0,0008.97,0005.47,0005.24
2022-10-05 15:26:00,,0834.0,5.01,0.00,29.0,27.8,00.0,37.6,30.9,22.5,0000.0,0008.94,0005.40,0005.18
2022-10-05 15:27:00,,0834.1,4.99,0.00,29.0,27.8,00.0,37.6,30.9,22.9,0000.0,0008.86,0005.33,0005.11
2022-10-05 15:28:00,,0834.0,5.00,0.00,29.0,27.8,00.0,37.6,30.9,22.2,0000.0,0008.58,0005.27,0005.04
2022-10-05 15:29:00,,0834.0,5.01,0.00,29.0,27.8,00.0,37.6,30.9,22.0,0000.0,0008.46,0005.18,0004.97
2022-10-05 15:30:00,,0834.1,4.99,0.00,29.0,27.8,00.0,37.7,30.9,22.5,0000.0,0008.46,0005.13,0004.91
2022-10-05 15:31:00,,0834.0,5.01,0.00,29.0,27.9,00.0,37.7,30.9,22.1,0000.0,0008.37,0005.09,0004.87
2022-10-05 15:32:00,,0834.1,5.00,0.00,29.1,27.9,00.0,37.7,31.0,22.4,0000.0,0008.34,0005.05,0004.83
2022-10-05 15:33:00,,0834.1,5.02,0.00,29.1,27.9,00.0,37.7,31.0,21.6,0000.0,0007.83,0005.01,0004.78
2022-10-05 15:34:00,,0834.1,4.99,0.00,29.1,27.9,00.0,37.7,31.0,20.6,0000.0,0007.70,0004.93,0004.69
2022-10-05 15:35:00,,0834.1,5.01,0.00,29.1,27.9,00.0,37.7,31.0,20.0,0000.0,0007.52,0004.83,0004.61
2022-10-05 15:36:00,,0834.1,5.00,0.00,29.1,27.9,00.0,37.7,31.0,19.5,0000.0,0007.39,0004.73,0004.52
2022-10-05 15:37:00,,0834.2,5.00,0.00,29.1,28.0,00.0,37.8,31.0,19.3,0000.0,0007.18,0004.61,0004.42
2022-10-05 15:38:00,,0834.2,5.00,0.00,29.1,28.0,00.0,37.8,31.0,20.0,0000.0,0006.97,0004.53,0004.35
2022-10-05 15:39:00,,0834.2,5.01,0.00,29.2,28.0,00.0,37.8,31.1,20.6,0000.0,0006.67,0004.46,0004.30
2022-10-05 15:40:00,,0834.2,4.99,0.00,29.2,28.0,00.0,37.8,31.1,20.2,0000.0,0006.58,0004.41,0004.25
2022-10-05 15:41:00,,0834.2,5.01,0.00,29.2,28.0,00.0,37.8,31.1,20.4,0000.0,0006.53,0004.34,0004.17
2022-10-05 15:42:00,,0834.3,4.99,0.00,29.2,28.1,00.0,37.8,31.1,21.9,0000.0,0006.65,0004.32,0004.16
2022-10-05 15:43:00,,0834.3,5.01,0.00,29.2,28.1,00.0,37.8,31.1,21.3,0000.0,0006.65,0004.31,0004.15
2022-10-05 15:44:00,,0834.3,4.99,0.00,29.2,28.1,00.0,37.8,31.1,21.0,0000.0,0006.65,0004.31,0004.15
2022-10-05 15:45:00,,0834.3,4.99,0.00,29.2,28.1,00.0,37.9,31.2,20.1,0000.0,0006.74,0004.34,0004.17
2022-10-05 15:46:00,,0834.3,5.03,0.00,29.3,28.1,00.0,37.9,31.2,20.2,0000.0,0006.81,0004.35,0004.17
2022-10-05 15:47:00,,0834.3,5.01,0.00,29.3,28.1,00.0,37.9,31.2,19.9,0000.0,0006.95,0004.37,0004.17
2022-10-05 15:48:00,,0834.3,4.99,0.00,29.3,28.2,00.0,37.9,31.2,19.5,0000.0,0007.25,0004.39,0004.19
2022-10-05 15:49:00,,0834.3,5.01,0.00,29.3,28.2,00.0,37.9,31.2,19.9,0000.0,0007.62,0004.44,0004.22
2022-10-05 15:50:00,,0834.3,4.99,0.00,29.3,28.2,00.0,37.9,31.2,20.0,0000.0,0007.67,0004.46,0004.24
2022-10-05 15:51:00,,0834.3,5.01,0.00,29.3,28.2,00.0,37.9,31.2,19.5,0000.0,0007.80,0004.48,0004.24
2022-10-05 15:52:00,,0834.3,4.99,0.00,29.4,28.2,00.0,38.0,31.3,19.0,0000.0,0007.79,0004.48,0004.24
2022-10-05 15:53:00,,0834.3,5.00,0.00,29.4,28.2,00.0,38.0,31.3,19.6,0000.0,0007.70,0004.49,0004.28
2022-10-05 15:54:00,,0834.3,5.00,0.00,29.4,28.3,00.0,38.0,31.3,19.6,0000.0,0007.60,0004.47,0004.25
2022-10-05 15:55:00,,0834.3,5.01,0.00,29.4,28.3,00.0,38.0,31.3,19.6,0000.0,0007.61,0004.45,0004.22
2022-10-05 15:56:00,,0834.3,4.99,0.00,29.4,28.3,00.0,38.0,31.3,19.8,0000.0,0007.62,0004.46,0004.22
2022-10-05 15:57:00,,0834.3,5.00,0.00,29.4,28.3,00.0,38.0,31.3,20.2,0000.0,0007.62,0004.48,0004.24
2022-10-05 15:58:00,,0834.3,5.00,0.00,29.5,28.3,00.0,38.1,31.3,19.9,0000.0,0007.74,0004.49,0004.26
2022-10-05 15:59:00,,0834.3,5.00,0.00,29.5,28.4,00.0,38.1,31.3,20.0,0000.0,0007.72,0004.54,0004.29
